Tracking 35280 objects as of 7-Sep-2026
HD Live streaming from Space Station
objects crossing your sky now

THORAD AGENA D DEB


THORAD AGENA D DEB is no longer on orbit


NORAD ID: 4288
Int'l Code: 1969-082DN
Launch date: September 30, 1969
Source: United States (US)
Launch site: AIR FORCE WESTERN TEST RANGE (AFWTR)
Decay date: 1970-09-12

Note: This is SATELLITE DEBRIS
Your satellite tracking list
Your tracking list is empty




NASA's NSSDC Master Catalog

Two Line Element Set (TLE):
1 04288U 69082 DN 70251.11881948  .01956436 +00000-0 +00000-0 0  9996
2 04288 069.6434 176.9709 0045830 170.6328 189.5669 15.45993493048651
Source of the keplerian elements: AFSPC